Hourly Data Report for September 14, 2010

PETERBOROUGH AWOS
ONTARIO

44°14'00.000" N
78°22'00.000" W
191.40 m
6166420

Download Data

Hourly Data (September 2010)
Hourly Data Report for September 14, 2010
TIME
LST
Temp Definition
°C
Dew Point Definition
°C
Rel Hum Definition
%
Precip. Amount Definition
mm

Wind Dir Definition
10's deg

Wind Spd Definition
km/h
Visibility Definition
km
Stn Press Definition
kPa
Hmdx Definition


Wind Chill Definition


Weather Definition


00:00 12.3 10.1 86   LegendMM LegendMM 15.0 98.88      
01:00 12.1 9.5 84   LegendMM LegendMM 15.0 98.89      
02:00 9.6 7.8 89   LegendMM LegendMM 15.0 98.89      
03:00 10.2 8.0 86   LegendMM LegendMM 15.0 98.93      
04:00 7.4 6.7 95   LegendMM LegendMM 15.0 98.97      
05:00 8.1 7.7 97   LegendMM LegendMM 15.0 99.00      
06:00 7.2 6.6 96   LegendMM LegendMM 15.0 99.09      
07:00 10.5 9.4 93   LegendMM LegendMM 15.0 99.12      
08:00 13.2 9.6 79   LegendMM LegendMM 15.0 99.16      
09:00 14.7 10.0 73   LegendMM LegendMM 15.0 99.21      
10:00 16.0 7.9 59   LegendMM LegendMM 15.0 99.20      
11:00 16.7 7.5 55   LegendMM LegendMM 15.0 99.20      
12:00 15.3 8.7 65   LegendMM LegendMM 15.0 99.20      
13:00 16.9 8.2 56   LegendMM LegendMM 15.0 99.17      
14:00 18.7 6.9 46   LegendMM LegendMM 15.0 99.13      
15:00 17.7 5.8 46   LegendMM LegendMM 15.0 99.09      
16:00 16.8 6.0 49   LegendMM LegendMM 15.0 99.10      
17:00 16.9 8.0 56   LegendMM LegendMM 15.0 99.10      
18:00 15.8 7.4 57   LegendMM LegendMM 15.0 99.10      
19:00 14.2 6.5 60   LegendMM LegendMM 15.0 99.19      
20:00 13.5 6.6 63   LegendMM LegendMM 15.0 99.25      
21:00 11.8 7.8 76   LegendMM LegendMM 15.0 99.34      
22:00 11.6 7.2 74   LegendMM LegendMM 15.0 99.37      
23:00 11.2 7.7 79   LegendMM LegendMM 15.0 99.41      

Notes on Data Quality.

Legend

  • E = Estimated
  • M = Missing
  • NA = Not Available*
  • [empty] = Indicates an unobserved value
Date modified: